Wind van: 21-10-2020 18:00 tot: 22:00 waarschuwing voor: Wind niveau: Geel info button

Weerstation Grootegast  Weerstation Grootegast


15 daagse weersverwachting Manchester (GB)

  • Overzicht
  • Per uur
  • 15 dagen
  • Extra
  • Vergelijk
  • Kaarten
  • Dagkaart
  • Meer »
  • Info
  • Statistieken
  • Directe link
    Temp 6h Neerslag Wind  
 07:50     17:57    Daglengte: 10:07 Vandaag
19:00
13°
1.4 mm
3
 07:52     17:55    Daglengte: 10:03 Morgen
01:00
11°
2.7 mm
5
07:00
 
6
13:00
10°
 
7
19:00
 
4
 07:54     17:53    Daglengte: 9:59 Vrijdag 23 Okt
01:00
 
3
07:00
2.0 mm
3
13:00
7.5 mm
5
19:00
 
3
 07:56     17:51    Daglengte: 9:55 Zaterdag 24 Okt
01:00
 
4
07:00
 
8
13:00
13°
16.4 mm
9
Locatie info
Region: England
Latitude: 53.4796°N
Longitude: -2.2487°E
51 masl
Postcode: M3 3
Temp/Neerslag /Baro Onweer/Dauwpunt
    Temp Baro 1h Neerslag Dauwpunt Wind UV Bewolking  
 07:50     17:57    Daglengte: 10:07 Vandaag
18:00
13°
995.1 hPa 0.7 mm
82%
11.4°
3
Windvlaag: 2.9 m/s
80%
19:00
13°
996.0 hPa 0.6 mm
82%
11.1°
3
Windvlaag: 2.3 m/s
86%
20:00
12°
996.9 hPa 0.6 mm
82%
10.6°
3
Windvlaag: 1.9 m/s
85%
21:00
12°
997.2 hPa 0.8 mm
82%
9.9°
4
Windvlaag: 2.8 m/s
80%
22:00
12°
997.8 hPa 0.5 mm
82%
9.6°
4
Windvlaag: 3.3 m/s
86%
23:00
11°
998.2 hPa 0.8 mm
82%
9.9°
4
Windvlaag: 3.1 m/s
88%
 07:52     17:55    Daglengte: 10:03 Morgen
00:00
11°
998.7 hPa
68%
9.6°
4
Windvlaag: 2.9 m/s
67%
01:00
11°
999.2 hPa
37%
9.2°
5
Windvlaag: 2.8 m/s
59%
02:00
10°
999.6 hPa
74%
8.7°
5
Windvlaag: 3 m/s
60%
03:00
10°
Voelt als: 7.2°
1000.1 hPa
72%
8.0°
5
Windvlaag: 3.4 m/s
57%
04:00
Voelt als: 6.6°
1000.4 hPa
77%
7.1°
6
Windvlaag: 3.6 m/s
51%
05:00
Voelt als: 6.0°
1001.0 hPa
69%
6.5°
6
Windvlaag: 4.2 m/s
61%
06:00
Voelt als: 5.6°
1001.4 hPa
26%
6.3°
6
Windvlaag: 4.5 m/s
65%
07:00
Voelt als: 5.3°
1001.9 hPa
27%
6.2°
6
Windvlaag: 4.4 m/s
67%
08:00
Voelt als: 5.3°
1002.5 hPa
71%
6.2°
6
Windvlaag: 4.4 m/s
87%
09:00
Voelt als: 5.6°
1003.3 hPa
70%
6.3°
6
Windvlaag: 4.3 m/s
76%
10:00
Voelt als: 6.2°
1004.0 hPa
71%
6.6°
6
Windvlaag: 4.3 m/s
69%
11:00
10°
Voelt als: 6.6°
1004.4 hPa
77%
6.8°
7
Windvlaag: 4.2 m/s
82%
12:00
10°
1005.0 hPa
72%
6.9°
7
Windvlaag: 3.9 m/s
73%
13:00
10°
1005.4 hPa
23%
7.0°
7
Windvlaag: 3.2 m/s
72%
14:00
10°
1005.7 hPa
17%
6.9°
6
Windvlaag: 2.7 m/s
56%
15:00
11°
1005.8 hPa
22%
6.8°
6
Windvlaag: 2.6 m/s
41%
16:00
10°
1006.1 hPa
56%
6.3°
6
Windvlaag: 2.2 m/s
36%
17:00
10°
Voelt als: 7.5°
1006.6 hPa
53%
5.8°
5
Windvlaag: 2 m/s
15%
18:00
Voelt als: 7.0°
1007.1 hPa
61%
5.1°
4
Windvlaag: 1.9 m/s
11%
19:00
Voelt als: 6.4°
1007.7 hPa
55%
4.7°
4
Windvlaag: 1.8 m/s
9%
20:00
Voelt als: 5.8°
1008.0 hPa
14%
4.0°
3
Windvlaag: 1.7 m/s
16%
21:00
Voelt als: 5.3°
1008.3 hPa
14%
3.6°
3
Windvlaag: 1.4 m/s
21%
22:00
Voelt als: 4.7°
1008.3 hPa
14%
3.3°
3
Windvlaag: 2.3 m/s
19%
23:00
Voelt als: 4.4°
1008.2 hPa
14%
3.2°
3
Windvlaag: 2.5 m/s
13%
 07:54     17:53    Daglengte: 9:59 Vrijdag 23 Okt
00:00
Voelt als: 4.0°
1008.0 hPa
14%
3.0°
3
Windvlaag: 2.7 m/s
9%
01:00
Voelt als: 3.3°
1007.8 hPa
14%
3.0°
3
Windvlaag: 2.8 m/s
12%
02:00
Voelt als: 2.7°
1007.5 hPa
14%
2.8°
3
Windvlaag: 3 m/s
20%
03:00
Voelt als: 2.7°
1007.1 hPa
14%
2.5°
3
Windvlaag: 3 m/s
28%
04:00
Voelt als: 2.5°
1006.6 hPa
14%
2.3°
3
Windvlaag: 3.1 m/s
53%
05:00
Voelt als: 2.6°
1006.0 hPa
14%
2.3°
3
Windvlaag: 2.6 m/s
82%
06:00
Voelt als: 2.7°
1005.9 hPa
14%
2.5°
3
Windvlaag: 3.1 m/s
74%
07:00
Voelt als: 3.3°
1005.4 hPa 2.0 mm
18%
2.9°
3
Windvlaag: 3.3 m/s
77%
08:00
Voelt als: 3.6°
1005.1 hPa 2.1 mm
80%
3.9°
4
Windvlaag: 3.7 m/s
75%
09:00
Voelt als: 4.1°
1005.1 hPa 1.5 mm
82%
4.7°
4
Windvlaag: 4.2 m/s
90%
10:00
Voelt als: 4.7°
1004.6 hPa 1.9 mm
100%
5.7°
5
Windvlaag: 5.1 m/s
97%
11:00
Voelt als: 5.1°
1004.4 hPa 2.1 mm
100%
6.4°
5
Windvlaag: 5.2 m/s
98%
12:00
Voelt als: 5.5°
1004.4 hPa
99%
7.0°
5
Windvlaag: 4.8 m/s
97%
13:00
Voelt als: 6.8°
1004.4 hPa
100%
7.8°
5
Windvlaag: 3.9 m/s
97%
14:00
10°
1004.3 hPa
99%
8.1°
5
Windvlaag: 2.2 m/s
87%
15:00
10°
1004.7 hPa
92%
7.8°
5
Windvlaag: 1.8 m/s
76%
16:00
10°
Voelt als: 7.5°
1005.3 hPa
79%
6.5°
5
Windvlaag: 1.7 m/s
27%
17:00
Voelt als: 6.9°
1005.8 hPa
77%
5.7°
5
Windvlaag: 1.8 m/s
19%
18:00
Voelt als: 5.9°
1006.3 hPa
24%
4.9°
4
Windvlaag: 2.1 m/s
32%
19:00
Voelt als: 5.4°
1006.5 hPa
32%
4.6°
3
Windvlaag: 2.2 m/s
18%
20:00
Voelt als: 4.5°
1006.8 hPa
27%
4.4°
2
Windvlaag: 2.6 m/s
38%
21:00
Voelt als: 3.8°
1007.1 hPa
37%
4.3°
3
Windvlaag: 3 m/s
29%
22:00
Voelt als: 3.5°
1007.2 hPa
24%
4.0°
3
Windvlaag: 3.5 m/s
66%
23:00
Voelt als: 3.2°
1007.1 hPa
24%
4.1°
4
Windvlaag: 4.1 m/s
39%
 07:56     17:51    Daglengte: 9:55 Zaterdag 24 Okt
00:00
Voelt als: 3.1°
1006.9 hPa
21%
4.0°
4
Windvlaag: 4.4 m/s
29%
01:00
Voelt als: 2.7°
1006.5 hPa
31%
4.2°
4
Windvlaag: 4.5 m/s
69%
02:00
Voelt als: 2.7°
1005.7 hPa
26%
4.0°
5
Windvlaag: 4.3 m/s
49%
03:00
Voelt als: 3.0°
1004.9 hPa
21%
3.8°
5
Windvlaag: 6.4 m/s
88%
04:00
Voelt als: 3.4°
1003.7 hPa
22%
3.8°
6
Windvlaag: 6.6 m/s
77%
05:00
Voelt als: 3.7°
1002.4 hPa
85%
4.4°
7
Windvlaag: 7.3 m/s
92%
06:00
Voelt als: 4.4°
1000.8 hPa
87%
5.2°
7
Windvlaag: 7.9 m/s
100%
07:00
Voelt als: 4.9°
999.5 hPa
98%
5.6°
8
Windvlaag: 8.3 m/s
100%
08:00
Voelt als: 5.5°
999.7 hPa
80%
5.9°
8
Windvlaag: 18.1 m/s
99% warningclass
09:00
10°
Voelt als: 6.3°
999.1 hPa
71%
6.6°
8
Windvlaag: 19 m/s
100% warningclass
10:00
10°
998.4 hPa
85%
7.3°
8
Windvlaag: 19.6 m/s
100% warningclass
11:00
11°
997.6 hPa 5.2 mm
100%
7.9°
8
Windvlaag: 19.3 m/s
100% warningclass
12:00
12°
996.9 hPa 5.3 mm
100%
8.5°
8
Windvlaag: 19.6 m/s
100% warningclass
13:00
13°
996.2 hPa 5.9 mm
100%
9.0°
9
Windvlaag: 2.8 m/s
100%
14:00
13°
997.9 hPa 15.5 mm
100%
9.7°
9
Windvlaag: 20.6 m/s
100% warningclass
15:00
13°
996.8 hPa 15.8 mm
100%
10.3°
9
Windvlaag: 21.4 m/s
100% warningclass
16:00
13°
995.9 hPa 19.3 mm
100%
10.9°
8
Windvlaag: 15 m/s
100%
17:00
13°
995.1 hPa 23.9 mm
100%
11.0°
7
Windvlaag: 11.3 m/s
100%
Temp/Neerslag /Baro Onweer/Dauwpunt
    Temp Baro Neerslag Dauwpunt Wind Bewolking  
 07:50     17:57    Daglengte: 10:07 Vandaag
19:00
13°
996.0 hPa 1.4 mm 11.1°
3
86%
22:00
12°
997.8 hPa 1.8 mm 9.6°
4
86%
 07:52     17:55    Daglengte: 10:03 Morgen
01:00
11°
999.2 hPa 0.8 mm 9.2°
5
59%
04:00
Voelt als: 6.6°
1000.4 hPa   7.1°
6
51%
07:00
Voelt als: 5.3°
1001.9 hPa   6.2°
6
67%
10:00
Voelt als: 6.2°
1004.0 hPa   6.6°
6
69%
13:00
10°
1005.4 hPa   7.0°
7
72%
16:00
10°
1006.1 hPa   6.3°
6
36%
19:00
Voelt als: 6.4°
1007.7 hPa   4.7°
4
9%
22:00
Voelt als: 4.7°
1008.3 hPa   3.3°
3
19%
 07:54     17:53    Daglengte: 9:59 Vrijdag 23 Okt
01:00
Voelt als: 3.3°
1007.8 hPa   3.0°
3
12%
04:00
Voelt als: 2.5°
1006.6 hPa   2.3°
3
53%
07:00
Voelt als: 3.3°
1005.4 hPa 2.0 mm 2.9°
3
77%
10:00
Voelt als: 4.7°
1004.6 hPa 5.5 mm 5.7°
5
97%
13:00
Voelt als: 6.8°
1004.4 hPa 2.1 mm 7.8°
5
97%
16:00
10°
Voelt als: 7.5°
1005.3 hPa   6.5°
5
27%
19:00
Voelt als: 5.4°
1006.5 hPa   4.6°
3
18%
22:00
Voelt als: 3.5°
1007.2 hPa   4.0°
3
66%
 07:56     17:51    Daglengte: 9:55 Zaterdag 24 Okt
01:00
Voelt als: 2.7°
1006.5 hPa   4.2°
4
69%
04:00
Voelt als: 3.4°
1003.7 hPa   3.8°
6
77%
07:00
Voelt als: 4.9°
999.5 hPa   5.6°
8
100%
10:00
10°
998.4 hPa   7.3°
8
100% warningclass
13:00
13°
996.2 hPa 16.4 mm 9.0°
9
100%
16:00
13°
995.9 hPa 50.6 mm 10.9°
8
100%
19:00
13°
993.6 hPa 79.0 mm 11.8°
7
100%
22:00
11°
993.6 hPa 18.6 mm 9.6°
6
92%
 07:58     17:49    Daglengte: 9:51 Zondag 25 Okt
01:00
10°
Voelt als: 7.5°
993.5 hPa 20.3 mm 8.2°
5
92%
03:00
Voelt als: 6.1°
993.6 hPa 20.6 mm 7.1°
5
90%
06:00
Voelt als: 4.6°
993.6 hPa 20.6 mm 5.9°
6
89%
09:00
10°
Voelt als: 6.7°
993.9 hPa 20.6 mm 6.0°
6
71%
12:00
12°
994.2 hPa 20.6 mm 5.7°
7
52%
15:00
10°
994.6 hPa 21.3 mm 5.5°
6
41%
18:00
Voelt als: 6.2°
995.2 hPa 21.8 mm 5.2°
4
29%
21:00
Voelt als: 5.0°
996.3 hPa 22.0 mm 5.1°
3
30%
 08:00     17:47    Daglengte: 9:47 Maandag 26 Okt
00:00
Voelt als: 3.9°
997.4 hPa 22.3 mm 4.8°
3
32%
03:00
Voelt als: 3.6°
998.5 hPa 22.9 mm 4.9°
3
49%
06:00
Voelt als: 3.3°
999.7 hPa 23.1 mm 4.9°
4
66%
09:00
Voelt als: 4.8°
1001.4 hPa 23.3 mm 5.7°
5
66%
12:00
10°
Voelt als: 6.7°
1003.1 hPa 23.4 mm 6.3°
7
66%
15:00
Voelt als: 6.1°
1004.5 hPa 23.6 mm 5.7°
5
66%
18:00
Voelt als: 5.7°
1006.0 hPa 23.7 mm 5.2°
3
66%
21:00
Voelt als: 5.0°
1006.4 hPa 23.8 mm 5.2°
3
79%
 08:02     17:45    Daglengte: 9:43 Dinsdag 27 Okt
00:00
Voelt als: 4.3°
1006.7 hPa 23.8 mm 5.2°
3
92%
03:00
Voelt als: 4.7°
1005.0 hPa 23.8 mm 6.4°
5
92%
06:00
Voelt als: 5.5°
1003.3 hPa 23.8 mm 7.5°
6
92%
09:00
11°
1001.3 hPa 24.7 mm 9.3°
7
91%
12:00
13°
999.3 hPa 25.3 mm 11.0°
8
90%
15:00
14°
998.0 hPa 27.9 mm 11.7°
8
90%
18:00
14°
997.0 hPa 29.8 mm 12.0°
8
90%
21:00
12°
998.1 hPa 29.9 mm 9.8°
7
91%
 08:04     17:43    Daglengte: 9:39 Woensdag 28 Okt
00:00
11°
999.1 hPa 29.9 mm 7.8°
6
91%
03:00
10°
Voelt als: 6.9°
999.6 hPa 29.9 mm 6.3°
6
48%
06:00
Voelt als: 5.5°
1000.1 hPa 29.9 mm 4.8°
6
4%
09:00
10°
Voelt als: 6.6°
1001.2 hPa 29.9 mm 5.6°
7
48%
12:00
11°
1002.3 hPa 29.9 mm 6.4°
8
92%
15:00
10°
Voelt als: 7.0°
1004.4 hPa   6.2°
6
55%
18:00
Voelt als: 6.1°
1006.6 hPa 60.1 mm 6.0°
5
18%
 08:06     17:41    Daglengte: 9:35 Donderdag 29 Okt
00:00
Voelt als: 4.3°
1008.0 hPa 68.8 mm 4.2°
7
22%
06:00
10°
1004.3 hPa 76.9 mm 8.9°
8
91%
12:00
12°
1010.4 hPa 77.0 mm 5.4°
8
60%
18:00
10°
1015.2 hPa 81.3 mm 5.1°
5
92%
 08:08     17:39    Daglengte: 9:31 Vrijdag 30 Okt
00:00
10°
Voelt als: 7.8°
1019.5 hPa 83.2 mm 5.8°
4
92%
06:00
11°
1020.7 hPa 88.1 mm 9.7°
3
92%
12:00
14°
1024.3 hPa 110.5 mm 12.2°
5
91%
18:00
12°
1025.1 hPa 111.7 mm 9.8°
5
85%
 08:09     17:37    Daglengte: 9:28 Zaterdag 31 Okt
00:00
Voelt als: 5.6°
989.2 hPa 127.9 mm 5.8°
10
1%
06:00
Voelt als: 5.2°
996.9 hPa 130.0 mm 3.8°
6
1%
  CAPE Lifted Index Hail Supercell Tornado SRH 3km CL BTM PRES CL TOP PRES Swiss DWD icon SMHI TS
 07:50     17:57    Daglengte: 10:07 Vandaag
18:00 69 J/kg 2.8 K 0 % 0 % 0 % 0 m²/s² 0 0 4.12 61
19:00 32 J/kg 3.7 K 0 % 0 % 0 % 0 m²/s² 0 0 5.08 61
20:00 21 J/kg 4.5 K 0 % 0 % 0 % 0 m²/s² 0 0 5.46 61
21:00 21 J/kg 4.7 K 0 % 0 % 0 % 0 m²/s² 0 0 5.42 61
22:00 8 J/kg 5.7 K 0 % 0 % 0 % 0 m²/s² 0 0 5.88 3
23:00 11 J/kg 4.9 K 0 % 0 % 0 % 0 m²/s² 0 0 5.11 3
 07:52     17:55    Daglengte: 10:03 Morgen
00:00 21 J/kg 6.2 K 0 % 0 % 0 % 0 m²/s² 0 0 6.59 3
01:00 18 J/kg 7.0 K 0 % 0 % 0 % 0 m²/s² 0 0 7.9 3
02:00 22 J/kg 7.6 K 0 % 0 % 0 % 0 m²/s² 0 0 9.61 2
03:00 31 J/kg 7.9 K 0 % 0 % 0 % 0 m²/s² 0 0 14.41 3
04:00 14 J/kg 7.8 K 0 % 0 % 0 % 0 m²/s² 0 0 13.74 2
05:00 1 J/kg 6.8 K 0 % 0 % 0 % 0 m²/s² 0 0 11.33 3
06:00 0 J/kg 6.0 K 0 % 0 % 0 % 0 m²/s² 0 0 9.51 3
07:00 11 J/kg 6.0 K 0 % 0 % 0 % 0 m²/s² 0 0 9.15 3
08:00 25 J/kg 5.9 K 0 % 0 % 0 % 0 m²/s² 0 0 8.72 3
09:00 21 J/kg 5.5 K 0 % 0 % 0 % 0 m²/s² 0 0 7.66 3
10:00 21 J/kg 5.4 K 0 % 0 % 0 % 0 m²/s² 0 0 7.32 3
11:00 18 J/kg 5.1 K 0 % 0 % 0 % 0 m²/s² 0 0 6.54 80
12:00 31 J/kg 4.8 K 0 % 0 % 0 % 0 m²/s² 0 0 6.09 3
13:00 24 J/kg 4.9 K 0 % 0 % 0 % 0 m²/s² 0 0 6.07 3
14:00 21 J/kg 5.4 K 0 % 0 % 0 % 0 m²/s² 0 0 6.69 3
15:00 26 J/kg 5.7 K 0 % 0 % 0 % 0 m²/s² 0 0 7.29 2
16:00 33 J/kg 5.9 K 0 % 0 % 0 % 0 m²/s² 0 0 8.12 2
17:00 31 J/kg 6.6 K 0 % 0 % 0 % 0 m²/s² 0 0 10.35 2
18:00 14 J/kg 8.0 K 0 % 0 % 0 % 0 m²/s² 0 0 14.36 2
19:00 11 J/kg 9.4 K 0 % 0 % 0 % 0 m²/s² 0 0 16.45 2
20:00 7 J/kg 10.7 K 0 % 0 % 0 % 0 m²/s² 0 0 17.3 1
21:00 0 J/kg 11.4 K 0 % 0 % 0 % 0 m²/s² 0 0 17.64 1
22:00 0 J/kg 11.7 K 0 % 0 % 0 % 0 m²/s² 0 0 17.97 1
23:00 0 J/kg 12.3 K 0 % 0 % 0 % 0 m²/s² 0 0 17.91 1
 07:54     17:53    Daglengte: 9:59 Vrijdag 23 Okt
00:00 0 J/kg 12.2 K 0 % 0 % 0 % 0 m²/s² 0 0 16.73 0
01:00 0 J/kg 12.0 K 0 % 0 % 0 % 0 m²/s² 0 0 16.44 0
02:00 0 J/kg 11.9 K 0 % 0 % 0 % 0 m²/s² 0 0 15.8 0
03:00 0 J/kg 11.5 K 0 % 0 % 0 % 0 m²/s² 0 0 14.41 1
04:00 0 J/kg 10.6 K 0 % 0 % 0 % 0 m²/s² 0 0 11.89 2
05:00 0 J/kg 10.0 K 0 % 0 % 0 % 0 m²/s² 0 0 10.57 2
06:00 0 J/kg 9.6 K 0 % 0 % 0 % 0 m²/s² 0 0 9.93 3
07:00 0 J/kg 8.9 K 0 % 0 % 0 % 0 m²/s² 0 0 9.35 3
08:00 0 J/kg 7.9 K 0 % 0 % 0 % 0 m²/s² 0 0 8.44 3
09:00 0 J/kg 6.1 K 0 % 0 % 0 % 0 m²/s² 0 0 6.46 61
10:00 0 J/kg 4.4 K 0 % 0 % 0 % 0 m²/s² 0 0 4.73 61
11:00 0 J/kg 4.0 K 0 % 0 % 0 % 0 m²/s² 0 0 4.33 61
12:00 13 J/kg 5.6 K 0 % 0 % 0 % 0 m²/s² 0 0 6.02 61
13:00 61 J/kg 5.2 K 0 % 0 % 0 % 0 m²/s² 0 0 6.16 3
14:00 65 J/kg 6.6 K 0 % 0 % 0 % 0 m²/s² 0 0 13.8 3
15:00 61 J/kg 7.2 K 0 % 0 % 0 % 0 m²/s² 0 0 12.48 3
16:00 62 J/kg 6.9 K 0 % 0 % 0 % 0 m²/s² 0 0 10.86 2
17:00 81 J/kg 6.7 K 0 % 0 % 0 % 0 m²/s² 0 0 10.96 2
18:00 72 J/kg 6.8 K 0 % 0 % 0 % 0 m²/s² 0 0 10.64 2
19:00 85 J/kg 7.5 K 0 % 0 % 0 % 0 m²/s² 0 0 11.07 1
20:00 48 J/kg 8.6 K 0 % 0 % 0 % 0 m²/s² 0 0 11.93 3
21:00 24 J/kg 8.9 K 0 % 0 % 0 % 0 m²/s² 0 0 11.84 1
22:00 0 J/kg 9.8 K 0 % 0 % 0 % 0 m²/s² 0 0 12.74 1
23:00 0 J/kg 10.5 K 0 % 0 % 0 % 0 m²/s² 0 0 13.62 1
 07:56     17:51    Daglengte: 9:55 Zaterdag 24 Okt
00:00 0 J/kg 11.9 K 0 % 0 % 0 % 0 m²/s² 0 0 14.33 3
01:00 0 J/kg 11.5 K 0 % 0 % 0 % 0 m²/s² 0 0 13.12 3
02:00 0 J/kg 10.8 K 0 % 0 % 0 % 0 m²/s² 0 0 11.94 1
03:00 0 J/kg 12.2 K 0 % 0 % 0 % 0 m²/s² 0 0 12.5 3
04:00 0 J/kg 11.4 K 0 % 0 % 0 % 0 m²/s² 0 0 11.7 3
05:00 0 J/kg 9.7 K 0 % 0 % 0 % 0 m²/s² 0 0 9.91 61
06:00 0 J/kg 7.1 K 0 % 0 % 0 % 0 m²/s² 0 0 7.88 61
07:00 0 J/kg 5.4 K 0 % 0 % 0 % 0 m²/s² 0 0 5.7 3
08:00 0 J/kg 4.1 K 0 % 0 % 0 % 0 m²/s² 0 0 5.51 3
09:00 0 J/kg 4.3 K 0 % 0 % 0 % 0 m²/s² 0 0 7.03 3
10:00 0 J/kg 4.5 K 0 % 0 % 0 % 0 m²/s² 0 0 8.67 3
11:00 0 J/kg 4.3 K 0 % 0 % 0 % 0 m²/s² 0 0 8.83 61
12:00 0 J/kg 3.8 K 0 % 0 % 0 % 0 m²/s² 0 0 7.28 61
13:00 0 J/kg 2.8 K 0 % 0 % 0 % 0 m²/s² 0 0 5.23 61
14:00 0 J/kg 2.3 K 0 % 0 % 0 % 0 m²/s² 0 0 3.17
15:00 0 J/kg 1.7 K 0 % 0 % 0 % 0 m²/s² 0 0 2.09
16:00 12 J/kg 1.9 K 0 % 0 % 0 % 0 m²/s² 0 0 1.9
17:00 1 J/kg 3.7 K 0 % 0 % 0 % 0 m²/s² 0 0 3.79
Temp Baro Wind Neerslag
  EWN Forecast EWN WRFDA DWD ICON FMI HIRLAM MET Norway GFS
 07:50     17:57    Daglengte: 10:07 Vandaag
19:00 12.6° 996.0 hPa 2.8 m/s 1.4 mm 13.1° 994.6 hPa 3.5 m/s 6.7 mm 12.5° 995.5 hPa 1.3 m/s 1.5 mm 14.0° 996.5 hPa 4.6 m/s 0.0 mm 11.8° 996.2 hPa 2.2 m/s 12.9° 996.4 hPa 2.6 m/s
22:00 11.5° 997.8 hPa 4.1 m/s 1.8 mm 11.8° 996.4 hPa 4.6 m/s 7.5 mm 11.7° 997.6 hPa 3.1 m/s 1.4 mm 12.7° 998.3 hPa 4.6 m/s 0.0 mm 11.1° 997.8 hPa 4.1 m/s 12.5° 997.6 hPa 4.2 m/s
 07:52     17:55    Daglengte: 10:03 Morgen
01:00 10.7° 999.2 hPa 4.6 m/s 0.8 mm 10.6° 997.0 hPa 5.4 m/s 11.4 mm 10.9° 998.9 hPa 3.4 m/s 0.0 mm 12.1° 999.3 hPa 3.8 m/s 0.0 mm 10.2° 999.4 hPa 4.9 m/s 11.6° 998.8 hPa 4.7 m/s
04:00 9.5° 1000.4 hPa 6.0 m/s 0.0 mm 9.7° 997.5 hPa 6.6 m/s 12.2 mm 9.5° 1000.3 hPa 3.9 m/s 0.1 mm 12.1° 1000.2 hPa 6.9 m/s 0.0 mm 8.8° 1000.8 hPa 6.1 m/s 10.5° 999.6 hPa 6.5 m/s
07:00 8.6° 1001.9 hPa 6.3 m/s 0.0 mm 9.6° 999.2 hPa 6.4 m/s 14.2 mm 8.1° 1001.5 hPa 4.3 m/s 0.0 mm 10.8° 1002.0 hPa 7.6 m/s 0.0 mm 8.3° 1002.4 hPa 6.2 m/s 10.8° 1002.2 hPa 6.4 m/s
10:00 9.1° 1004.0 hPa 5.7 m/s 0.0 mm 9.9° 1001.2 hPa 6.4 m/s 18.7 mm 8.8° 1004.1 hPa 4.2 m/s 0.2 mm 10.5° 1003.8 hPa 8.0 m/s 0.0 mm 9.0° 1004.4 hPa 5.5 m/s 10.4° 1004.2 hPa 5.5 m/s
13:00 10.3° 1005.4 hPa 6.6 m/s 0.0 mm 10.3° 1002.7 hPa 6.7 m/s 23.0 mm 10.3° 1005.7 hPa 5.1 m/s 0.2 mm 11.2° 1004.6 hPa 7.9 m/s 0.0 mm 10.2° 1006.1 hPa 6.5 m/s 10.9° 1005.7 hPa 5.1 m/s
16:00 10.4° 1006.1 hPa 5.7 m/s 0.0 mm 10.6° 1004.2 hPa 6.1 m/s 25.0 mm 10.4° 1006.4 hPa 4.6 m/s 0.0 mm 10.8° 1005.4 hPa 6.2 m/s 0.0 mm 10.3° 1007.0 hPa 5.4 m/s 10.3° 1006.3 hPa 4.7 m/s
19:00 8.5° 1007.7 hPa 3.5 m/s 0.0 mm 9.0° 1005.3 hPa 3.7 m/s 25.6 mm 8.4° 1008.2 hPa 2.7 m/s 0.1 mm 10.5° 1006.4 hPa 4.8 m/s 0.0 mm 8.2° 1008.4 hPa 3.3 m/s 9.2° 1007.1 hPa 4.1 m/s
22:00 6.6° 1008.3 hPa 2.6 m/s 0.0 mm 7.5° 1006.1 hPa 3.7 m/s 25.6 mm 6.3° 1008.7 hPa 1.7 m/s 0.0 mm 10.1° 1006.9 hPa 3.8 m/s 0.0 mm 6.2° 1009.1 hPa 2.3 m/s 8.6° 1008.7 hPa 3.3 m/s
 07:54     17:53    Daglengte: 9:59 Vrijdag 23 Okt
01:00 5.6° 1007.8 hPa 2.9 m/s 0.0 mm 5.8° 1006.0 hPa 3.5 m/s 25.6 mm 4.6° 1008.2 hPa 1.8 m/s 0.0 mm 8.8° 1006.3 hPa 2.9 m/s 0.0 mm 5.4° 1009.0 hPa 3.0 m/s 7.3° 1008.2 hPa 3.8 m/s
04:00 5.1° 1006.6 hPa 3.2 m/s 0.0 mm 5.7° 1005.0 hPa 3.7 m/s 25.6 mm 4.0° 1007.2 hPa 1.7 m/s 0.0 mm 7.8° 1005.7 hPa 3.2 m/s 0.0 mm 4.9° 1007.9 hPa 3.2 m/s 6.2° 1007.0 hPa 3.8 m/s
07:00 5.9° 1005.4 hPa 3.4 m/s 2.0 mm 6.6° 1004.1 hPa 4.0 m/s 25.6 mm 4.9° 1005.3 hPa 1.7 m/s 0.0 mm 7.1° 1005.4 hPa 3.5 m/s 0.0 mm 5.8° 1006.7 hPa 3.6 m/s 6.7° 1005.8 hPa 4.0 m/s
10:00 7.5° 1004.6 hPa 4.5 m/s 5.5 mm 8.0° 1003.1 hPa 5.8 m/s 26.6 mm 7.5° 1004.5 hPa 2.6 m/s 1.1 mm 7.3° 1006.4 hPa 4.5 m/s 7.5° 1004.7 hPa 4.2 m/s
13:00 9.3° 1004.4 hPa 4.8 m/s 2.1 mm 9.9° 1003.7 hPa 3.8 m/s 35.8 mm 9.6° 1003.1 hPa 4.8 m/s 0.6 mm 8.4° 1005.6 hPa 5.0 m/s 8.4° 1005.2 hPa 4.2 m/s
16:00 9.9° 1005.3 hPa 5.1 m/s 0.0 mm 10.6° 1004.7 hPa 6.5 m/s 37.8 mm 9.8° 1004.8 hPa 4.6 m/s 0.1 mm 9.9° 1006.0 hPa 4.9 m/s 10.4° 1005.6 hPa 5.3 m/s
19:00 7.1° 1006.5 hPa 2.5 m/s 0.0 mm 9.8° 1005.8 hPa 4.0 m/s 37.9 mm 7.3° 1006.4 hPa 2.1 m/s 0.0 mm 6.4° 1007.5 hPa 2.4 m/s 8.8° 1007.8 hPa 4.1 m/s
22:00 5.9° 1007.2 hPa 3.1 m/s 0.0 mm 7.9° 1006.2 hPa 4.5 m/s 37.9 mm 5.8° 1006.6 hPa 2.1 m/s 0.0 mm 5.8° 1008.4 hPa 3.0 m/s 7.7° 1008.8 hPa 3.8 m/s
 07:56     17:51    Daglengte: 9:55 Zaterdag 24 Okt
01:00 5.7° 1006.5 hPa 4.0 m/s 0.0 mm 6.8° 1006.4 hPa 4.2 m/s 37.9 mm 5.3° 1005.8 hPa 2.9 m/s 0.0 mm 5.4° 1008.2 hPa 3.8 m/s 6.4° 1008.2 hPa 3.5 m/s
04:00 7.1° 1003.7 hPa 6.3 m/s 0.0 mm 8.4° 1004.0 hPa 7.0 m/s 38.2 mm 6.1° 1002.8 hPa 4.2 m/s 0.0 mm 6.9° 1004.8 hPa 6.3 m/s 7.8° 1005.6 hPa 5.5 m/s
07:00 8.6° 999.5 hPa 7.7 m/s 0.0 mm 9.3° 999.7 hPa 9.8 m/s 43.5 mm 8.4° 997.3 hPa 6.7 m/s 0.1 mm 8.2° 1001.5 hPa 7.2 m/s 9.7° 1001.4 hPa 8.3 m/s
10:00 10.5° 998.4 hPa 8.2 m/s 0.0 mm 10.9° 997.5 hPa 10.4 m/s 44.4 mm 10.4° 993.2 hPa 8.0 m/s 0.0 mm 10.4° 1000.6 hPa 7.9 m/s 11.6° 997.8 hPa 9.0 m/s
13:00 12.5° 996.2 hPa 8.6 m/s 16.4 mm 12.5° 993.8 hPa 10.6 m/s 45.6 mm 12.0° 990.2 hPa 6.9 m/s 1.8 mm 12.7° 999.7 hPa 8.7 m/s 13.7° 994.6 hPa 9.1 m/s
16:00 13.0° 995.9 hPa 8.0 m/s 50.6 mm 13.1° 990.0 hPa 7.3 m/s 50.6 mm 13.0° 996.9 hPa 8.1 m/s 14.6° 992.0 hPa 9.7 m/s
19:00 12.8° 993.6 hPa 7.3 m/s 79.0 mm 10.1° 990.5 hPa 5.2 m/s 79.0 mm 13.3° 994.1 hPa 7.6 m/s 11.0° 990.7 hPa 5.4 m/s
22:00 11.0° 993.6 hPa 5.7 m/s 18.6 mm 11.0° 993.8 hPa 5.7 m/s 10.4° 990.6 hPa 5.6 m/s 18.6 mm
 07:58     17:49    Daglengte: 9:51 Zondag 25 Okt
01:00 9.8° 993.5 hPa 4.7 m/s 20.3 mm 9.9° 993.7 hPa 4.7 m/s 9.0° 991.8 hPa 4.4 m/s 20.3 mm
03:00 8.8° 993.6 hPa 5.2 m/s 20.6 mm 8.9° 993.7 hPa 5.3 m/s 8.3° 992.4 hPa 4.7 m/s 20.6 mm
06:00 7.9° 993.6 hPa 5.8 m/s 20.6 mm 7.9° 993.7 hPa 5.9 m/s 7.6° 992.0 hPa 5.1 m/s 20.6 mm
09:00 9.7° 993.9 hPa 6.4 m/s 20.6 mm 9.8° 994.1 hPa 6.5 m/s 8.9° 991.6 hPa 5.5 m/s 20.6 mm
12:00 11.6° 994.2 hPa 7.0 m/s 20.6 mm 11.6° 994.5 hPa 7.0 m/s 11.5° 991.4 hPa 7.2 m/s 20.6 mm
15:00 10.2° 994.6 hPa 5.8 m/s 21.3 mm 10.1° 995.0 hPa 5.8 m/s 11.1° 990.4 hPa 6.8 m/s 21.3 mm
18:00 8.7° 995.2 hPa 4.5 m/s 21.8 mm 8.7° 995.5 hPa 4.5 m/s 9.2° 991.5 hPa 4.5 m/s 21.8 mm
21:00 7.3° 996.3 hPa 3.5 m/s 22.0 mm 7.2° 996.5 hPa 3.5 m/s 8.7° 994.3 hPa 4.0 m/s 22.0 mm
 08:00     17:47    Daglengte: 9:47 Maandag 26 Okt
00:00 5.9° 997.4 hPa 2.6 m/s 22.3 mm 5.7° 997.5 hPa 2.4 m/s 8.4° 996.5 hPa 5.1 m/s 22.3 mm
03:00 6.1° 998.5 hPa 3.3 m/s 22.9 mm 5.8° 998.5 hPa 3.2 m/s 8.4° 998.4 hPa 3.9 m/s 22.9 mm
06:00 6.2° 999.7 hPa 4.0 m/s 23.1 mm 6.0° 999.6 hPa 4.1 m/s 7.9° 1001.1 hPa 3.4 m/s 23.1 mm
09:00 7.9° 1001.4 hPa 5.4 m/s 23.3 mm 7.8° 1001.2 hPa 5.4 m/s 9.1° 1003.1 hPa 4.8 m/s 23.3 mm
12:00 9.7° 1003.1 hPa 6.6 m/s 23.4 mm 9.6° 1002.9 hPa 6.7 m/s 11.1° 1004.9 hPa 6.0 m/s 23.4 mm
15:00 8.8° 1004.5 hPa 4.9 m/s 23.6 mm 8.6° 1004.4 hPa 4.9 m/s 10.8° 1005.6 hPa 5.1 m/s 23.6 mm
18:00 7.7° 1006.0 hPa 3.1 m/s 23.7 mm 7.6° 1005.9 hPa 3.1 m/s 8.6° 1007.1 hPa 2.9 m/s 23.7 mm
21:00 7.1° 1006.4 hPa 3.2 m/s 23.8 mm 7.1° 1006.2 hPa 3.2 m/s 7.5° 1008.3 hPa 3.3 m/s 23.8 mm
 08:02     17:45    Daglengte: 9:43 Dinsdag 27 Okt
00:00 6.6° 1006.7 hPa 3.2 m/s 23.8 mm 6.6° 1006.6 hPa 3.2 m/s 6.1° 1008.0 hPa 2.8 m/s 23.8 mm
03:00 7.6° 1005.0 hPa 4.8 m/s 23.8 mm 7.8° 1004.9 hPa 4.9 m/s 6.0° 1007.1 hPa 3.2 m/s 23.8 mm
06:00 8.8° 1003.3 hPa 6.4 m/s 23.8 mm 8.9° 1003.1 hPa 6.6 m/s 7.3° 1005.7 hPa 4.3 m/s 23.8 mm
09:00 11.0° 1001.3 hPa 7.4 m/s 24.7 mm 11.2° 1001.2 hPa 7.5 m/s 8.6° 1003.4 hPa 6.7 m/s 24.7 mm
12:00 13.3° 999.3 hPa 8.4 m/s 25.3 mm 13.6° 999.2 hPa 8.4 m/s 9.7° 1000.4 hPa 8.0 m/s 25.3 mm
15:00 13.7° 998.0 hPa 8.3 m/s 27.9 mm 13.9° 998.0 hPa 8.4 m/s 11.3° 998.6 hPa 8.2 m/s 27.9 mm
18:00 13.9° 997.0 hPa 8.0 m/s 29.8 mm 14.2° 996.7 hPa 8.3 m/s 10.4° 1000.4 hPa 4.2 m/s 29.8 mm
21:00 12.4° 998.1 hPa 6.9 m/s 29.9 mm 12.7° 997.7 hPa 7.2 m/s 8.8° 1003.5 hPa 3.9 m/s 29.9 mm
 08:04     17:43    Daglengte: 9:39 Woensdag 28 Okt
00:00 10.9° 999.1 hPa 5.8 m/s 29.9 mm 11.2° 998.6 hPa 6.0 m/s 7.4° 1004.6 hPa 3.4 m/s 29.9 mm
03:00 9.7° 999.6 hPa 5.7 m/s 29.9 mm 9.9° 999.2 hPa 5.9 m/s 7.4° 1004.6 hPa 3.9 m/s 29.9 mm
06:00 8.5° 1000.1 hPa 5.7 m/s 29.9 mm 8.6° 999.7 hPa 5.8 m/s 7.8° 1004.3 hPa 4.1 m/s 29.9 mm
09:00 9.7° 1001.2 hPa 6.6 m/s 29.9 mm 9.7° 1001.0 hPa 6.8 m/s 9.4° 1003.4 hPa 5.1 m/s 29.9 mm
12:00 10.8° 1002.3 hPa 7.6 m/s 29.9 mm 10.8° 1002.3 hPa 7.7 m/s 11.1° 1002.0 hPa 6.2 m/s 29.9 mm
15:00 9.9° 1004.4 hPa 6.4 m/s 29.9 mm 9.8° 1004.9 hPa 6.5 m/s 11.7° 999.4 hPa 5.9 m/s 29.9 mm
18:00 8.9° 1006.6 hPa 5.3 m/s 30.2 mm 8.7° 1007.5 hPa 5.3 m/s 10.9° 996.9 hPa 5.0 m/s 30.2 mm
 08:06     17:41    Daglengte: 9:35 Donderdag 29 Okt
00:00 7.9° 1008.0 hPa 6.9 m/s 38.4 mm 7.9° 1009.1 hPa 7.2 m/s 8.4° 996.0 hPa 3.2 m/s 38.4 mm
06:00 10.5° 1004.3 hPa 8.1 m/s 38.4 mm 10.8° 1004.7 hPa 8.5 m/s 7.0° 1000.1 hPa 3.8 m/s 38.4 mm
12:00 12.3° 1010.4 hPa 8.3 m/s 38.5 mm 12.5° 1011.3 hPa 8.7 m/s 10.5° 1000.8 hPa 4.3 m/s 38.5 mm
18:00 10.4° 1015.2 hPa 5.2 m/s 41.3 mm 10.5° 1016.6 hPa 5.3 m/s 9.1° 1000.0 hPa 4.5 m/s 41.3 mm
 08:08     17:39    Daglengte: 9:31 Vrijdag 30 Okt
00:00 9.8° 1019.5 hPa 4.0 m/s 41.6 mm 10.1° 1021.3 hPa 4.0 m/s 7.1° 999.1 hPa 3.6 m/s 41.6 mm
06:00 10.6° 1020.7 hPa 2.6 m/s 46.4 mm 10.8° 1022.9 hPa 2.5 m/s 7.9° 996.4 hPa 3.5 m/s 46.4 mm
12:00 14.0° 1024.3 hPa 5.1 m/s 55.4 mm 14.4° 1027.2 hPa 5.2 m/s 10.1° 992.7 hPa 4.4 m/s 55.4 mm
18:00 11.8° 1025.1 hPa 5.4 m/s 55.9 mm 11.9° 1028.7 hPa 5.4 m/s 10.6° 985.1 hPa 5.4 m/s 55.9 mm
 08:09     17:37    Daglengte: 9:28 Zaterdag 31 Okt
00:00 9.5° 989.2 hPa 9.7 m/s 64.3 mm 9.5° 989.2 hPa 9.7 m/s 64.3 mm
06:00 8.3° 996.9 hPa 5.8 m/s 65.0 mm 8.3° 996.9 hPa 5.8 m/s 65.0 mm
FMI Hirlam - 7.5 km EWN WRFDA - 12 km DWD ICON - 7 km GFS - 25 km Basiskaart






























































Updatetijd (Europe/Amsterdam) Resolutie Lengte Stap
FMI Hirlam 14:00, 20:00, 02:00, 08:00 7.5 km 49h 1h
EWN WRFDA 15:30, 21:30, 03:30, 09:30 12 km 73h 1h
DWD ICON 18:00, 00:00, 06:00, 12:00 7 km 75h 1h
GFS 14:00, 20:00, 02:00, 08:00 25 km 237h 3h
30+ mm
25-30 mm
20-25 mm
15-20 mm
10-15 mm
6-10 mm
4-6 mm
2-4 mm
1-2 mm
0.5-1 mm
0.2-0.5 mm
0.1-0.2 mm
30+ mm
25-30 mm
20-25 mm
15-20 mm
10-15 mm
6-10 mm
4-6 mm
2-4 mm
1-2 mm
0.5-1 mm
0.2-0.5 mm
0.1-0.2 mm
Sneeuwval
Natte sneeuw
Hagel
Vorst
30+ mm
25-30 mm
20-25 mm
15-20 mm
10-15 mm
6-10 mm
4-6 mm
2-4 mm
1-2 mm
0.5-1 mm
0.2-0.5 mm
0.1-0.2 mm
Sneeuwval
Natte sneeuw
Hagel
Vorst
Onweer
50 mm
40 mm
30 mm
26 mm
22 mm
18 mm
14 mm
10 mm
9 mm
8 mm
7 mm
6 mm
5 mm
4.5 mm
4 mm
3.5 mm
3 mm
2.5 mm
2 mm
1.5 mm
1 mm
0.8 mm
0.6 mm
0.4 mm
0.2 mm
0.05 mm
35°
30°
25°
20°
15°
10°
-5°
-10°
-15°
-20°
-25°
-30°
-35°
33> m/s
29 m/s
25 m/s
21 m/s
17 m/s
14 m/s
11 m/s
8 m/s
5 m/s
3 m/s
0 m/s
2600 J/kg
2400 J/kg
2200 J/kg
2000 J/kg
1800 J/kg
1600 J/kg
1400 J/kg
1200 J/kg
1000 J/kg
800 J/kg
600 J/kg
400 J/kg
200 J/kg
70 dBZ
65 dBZ
60 dBZ
55 dBZ
50 dBZ
45 dBZ
40 dBZ
35 dBZ
30 dBZ
25 dBZ
20 dBZ
15 dBZ
10 dBZ
5 dBZ
-1 K
-2 K
-3 K
-4 K
-5 K
-6 K
-7 K
-8 K
-9 K
950 m²/s²
900 m²/s²
850 m²/s²
800 m²/s²
750 m²/s²
700 m²/s²
650 m²/s²
600 m²/s²
550 m²/s²
500 m²/s²
450 m²/s²
400 m²/s²
350 m²/s²
300 m²/s²
250 m²/s²
200 m²/s²
150 m²/s²
100 m²/s²
46 m/s
44 m/s
42 m/s
40 m/s
38 m/s
36 m/s
34 m/s
32 m/s
30 m/s
28 m/s
26 m/s
24 m/s
22 m/s
20 m/s
16 m/s
12 m/s
8 m/s
4 m/s
30 m/s
28 m/s
26 m/s
24 m/s
22 m/s
20 m/s
18 m/s
16 m/s
14 m/s
12 m/s
10 m/s
8 m/s
6 m/s
4 m/s
2 m/s
3.0
2.8
2.6
2.4
2.2
2.0
1.8
1.6
1.4
1.2
1.0
0.8
0.6
0.4
0.2
15
14
13
12
11
10
9
8
7
6
5
4
3
2
1
90%
80%
70%
60%
50%
40%
30%
20%
10%
42
40
38
36
34
32
30
28
26
24
22
20
18
16
14
12
90+ cm
80-90 cm
70-80 cm
60-70 cm
50-60 cm
40-50 cm
30-40 cm
20-30 cm
10-20 cm
1-10 cm
Sneeuwval
Natte sneeuw
Regen
>120 mm
115 mm
110 mm
105 mm
100 mm
95 mm
90 mm
85 mm
80 mm
75 mm
70 mm
65 mm
60 mm
55 mm
50 mm
45 mm
45 mm
40 mm
35 mm
30 mm
25 mm
20 mm
15 mm
10 mm
5 mm
0.1 mm
960 hPa
880 hPa
800 hPa
720 hPa
640 hPa
560 hPa
584 gpdm
568 gpdm
552 gpdm
536 gpdm
520 gpdm
504 gpdm
488 gpdm
Extreem zwaar Noodweer Kans op onweer
15% 15% 5% 50% 15%

Dag




Kaart






35°
30°
25°
20°
15°
10°
-5°
-10°
-15°
-20°
-25°
-30°
-35°
33> m/s
29 m/s
25 m/s
21 m/s
17 m/s
14 m/s
11 m/s
8 m/s
5 m/s
3 m/s
0 m/s
Extreem zwaar Noodweer Kans op onweer
15% 15% 5% 50% 15%
>120 mm
115 mm
110 mm
105 mm
100 mm
95 mm
90 mm
85 mm
80 mm
75 mm
70 mm
65 mm
60 mm
55 mm
50 mm
45 mm
45 mm
40 mm
35 mm
30 mm
25 mm
20 mm
15 mm
10 mm
5 mm
0.1 mm
Onweer risico kaarten - De groene en gele kleur geeft de kans op onweer aan binnen 40 km van een punt. Oranje, rood en violet hebben hetzelfde niveau zoals je het ziet op estofex.org waaronder ook de kans op hagel en supercells.

dBZ - dBZ staat voor decibel ten opzichte van Z.

Cape - Convective available potential energy (CAPE), is de totale hoeveelheid energie die een luchtpakketje nodig heeft om zover mogelijk te stijgen in de atmosfeer.

K Index - K-Index wordt berekend door de Vertical Totals (VT) en het verschil tussen de 850 hPa temperatuur en de 700 hPa dauwpuntsdepressie (Tdd 700) bij elkaar op te tellen.

TT Index - Convectie index wordt gebruikt voor het voorspellen van zware buien of onweer.

WRF - The Weather Research and Forecasting (WRF) is een volgende generatie mesoscale numeriek weersvoorspelling systeem ontworpen om zowel de operationele planning als het atmosferisch onderzoek te dienen. WRF is a cooperatie tussen het National Center for Atmospheric Research (NCAR), National Centers for Environmental Prediction (NCEP), Forecast Systems Laboratory (FSL), Air Force Weather Agency (AFWA), Naval Research Laboratory, University of Oklahoma, en de Federal Aviation Administration (FAA). Deze software draait op onze server.

WRFDA - Een meer geavanceerde versie van WRF

Arome - Het 2.5 km Arome model. Verzorgd door het Noors Meteorologisch Instituut.

MET Norway - De proff-default 4km meteorological data is een beste keus selectie van meteorologische modellen gebruikt door met.no die zijn geïnterpoleerd tot een gemeenschappelijke dataset. Verzorgd door het Noorse Meteorologisch Instituut.

SMHI - Het Hirlam model verzorgd door het Zweeds meteorologisch instituut.

FMI - Het Hirlam model verzorgd door het Fins meteorologisch instituut. Dekking alleen Finland.

GFS - Het Global Forecast Systeem (GFS) is een wereldwijd numerieke weersvoorspelling computermodel, gerund door NOAA.

GEM-GDPS - Het GEM-GDPS is a wereldwijd numeriek weersvoorspelling computermodel verzorgd door het Canadees Meteorologisch Centrum.

Credits/Info: Dank aan Stefan Gofferje van sääkeskus.fi voor enkele formules van GrADS. Info: Wikipedia.

Betrouwbaarheid van de verwachting

NB! 2015-03-29: Rebuilding the accuracy-test!

EWNACC
Day 1 Good forecasts

Dag 1 Tmax

Dag 2 Tmax

Geladen verwachtingen TOP 50

Totaal geladen verwachtingen:
Plaats Latitude Longitude Verwachtingen Plaats Latitude Longitude Verwachtingen
De waarden zijn gebaseerd op numerieke modellen. We proberen ze zo nauwkeurig mogelijk te krijgen, maar het echte weer is afhankelijk van allerlei fenomenen die niet automatisch kunnen worden opgehaald. Daarom, wanneer een waarde hoog is (bijv. Onweer kans), is dit niet een belofte dat het zal gebeuren!

De EWN-Weersverwachting gebruikt meerdere gratis bronnen voor de verwachting.
Daarnaast gebruiken we een eigen versie van WRFDA-EMS op 12 km resolutie die in de statistieken worden opgenomen. De kaarten zijn ook gegenereerd uit de WRFDA EMS-gegevens.

In de weersverwachting zijn inhoud en gegevens gebruikt van:
NCEP (GFS), The Canadian Meteorological Center (GEM-GDPS), Norwegian Meteorological Institute (MET Norway), Swedish Meteorological and Hydrological Institute (SMHI), Finnish meteorological institute (FMI), Temis (UV-forecast), Geonames, WXSIM - near private weatherstations with the WXSIM-software.
Creative Commons -lisenssi © 2020 European Weathernetwork. Script by Henkka, nordicweather.net with help from Oebel (weerstation-assen.nl), Henrik (silkeborg-vejret.dk), Alex (lokaltvader.se), Stefan (Wetterstation-Johanngeorgenstadt) and Daniel (wetterdienst.de). Reusage without permission forbidden.
Except where otherwise noted, content on this page is licensed under a Creative Commons Attribution 3.0 License.